[[{"header":{"parameterUnit":"m.s-1","parameterCategory":1,"la1":30.2992,"la2":30.254,"lo1":-89.0895,"lo2":-89.0443,"dy":0.0025,"dx":0.0025,"nx":19,"ny":19,"refTime":"2026-04-07T21:00:00:Z","depth":0,"parameterNumber":2,"parameterNumberName":"U-component_of_WINDS"},"data":[0,0,0,-6.8426,-6.8432,-6.8667,-6.8668,-6.9034,-6.9038,0,0,0,0,0,0,0,0,0,0,0,-6.8395,-6.8398,-6.8425,-6.8432,-6.8667,-6.8668,-6.9034,-6.9038,0,0,0,0,0,0,0,0,0,0,0,-6.8393,-6.8397,-6.8402,-6.8433,-6.8667,-6.8668,-6.9033,-6.8832,0,0,0,0,0,0,0,0,0,0,-6.8592,-6.8601,-6.8396,-6.8402,-6.8435,-6.8667,-6.8668,-6.8821,-6.8845,-6.8955,0,-6.9062,0,-6.9056,-6.9067,-6.9068,0,0,0,-6.8404,-6.8582,-6.861,-6.8403,-6.8437,-6.8667,-6.8553,-6.8834,-6.886,-6.8986,-6.9067,-6.9079,-6.9063,-6.9069,-6.9072,-6.9799,-6.9803,0,0,-6.8391,-6.8458,-6.8592,-6.8629,-6.8596,-6.8546,-6.8561,-6.8849,-6.8942,-6.9068,-6.9086,-6.9069,-6.9072,-6.9076,-6.9794,-6.98,0,0,0,-6.8373,-6.8451,-6.847,-6.8616,-6.8653,-6.8554,-6.8571,-6.8929,-6.8929,-6.909,-6.9073,-6.9075,-6.908,-6.9789,-6.9796,-7.0095,0,0,0,-6.8364,-6.8439,-6.8466,-6.851,-6.8649,-6.8794,-6.8646,-6.891,-6.894,-6.9071,-6.9075,-6.9084,-6.9784,-6.9793,-7.0075,-7.0226,0,0,0,-6.8366,-6.8439,-6.8486,-6.8513,-6.8616,-6.8788,-6.8804,-6.8914,-6.8932,-6.9069,-6.9085,-6.978,-6.9791,-7.0058,-7.0197,-7.0438,0,0,0,-6.8389,-6.875,-6.8492,-6.8888,-6.8615,-6.897,-6.8801,-6.9063,-6.9216,-6.9077,-6.9784,-6.9795,-7.0052,-7.0179,-7.042,-7.0654,-7.0757,0,0,-6.8882,-6.8811,-6.9039,-6.8815,-6.9233,-6.8928,-6.939,-6.9468,-6.942,-6.9675,-6.9692,-7.0082,-7.0195,-7.0434,-7.1308,-7.139,0,0,0,-6.9218,-6.9383,-6.9479,-6.9627,-6.9693,-6.9762,-6.9761,-6.9789,-7.0002,-6.9565,-7.023,-7.0296,-7.0433,-7.0542,-7.0612,-7.0726,-6.9848,-6.9847,-6.9846,-7.0015,-6.9932,-7.0303,-7.0249,-7.0395,-7.0388,-7.0499,-7.0536,-7.0412,-7.057,-7.0647,-7.1187,-7.1317,-7.1369,-7.1489,-7.0761,-7.0763,-7.0764,-7.0765,-7.0731,-7.0952,-7.0774,-7.1071,-7.0982,-7.1231,-7.1238,-7.1142,-7.1361,-7.1123,-7.124,-7.0989,-7.1462,-7.1563,-7.0786,-7.0782,-7.078,-7.0778,-7.0776,-7.1246,-7.1337,-7.1363,-7.1567,-7.1734,-7.1665,-7.1884,-7.1794,-7.1711,-7.1827,-7.1898,-7.1893,-7.1878,-7.1866,-7.1868,-7.187,-7.1871,-7.1873,-7.1874,-7.1771,-7.179,-7.1984,-7.2083,-7.2165,-7.2262,-7.2258,-7.2337,-7.2402,-7.2319,-7.2319,-7.2181,-7.1523,-7.1361,-7.1903,-7.1898,-7.1894,-7.1891,-7.1889,-7.2533,-7.2345,-7.2646,-7.2728,-7.2835,-7.3007,-7.2888,-7.3056,-7.3108,-7.3219,-7.3053,-7.2581,-7.2503,-7.2447,-7.2313,-7.3068,-7.3068,-7.3069,-7.3069,-7.2969,-7.2919,-7.3205,-7.3342,-7.3466,-7.3388,-7.3732,-7.3731,-7.3702,-7.3729,-7.3605,-7.3418,-7.3364,-7.3319,-7.3244,-7.3117,-7.4061,-7.4062,-7.4063,-7.3433,-7.3391,-7.37,-7.3666,-7.3743,-7.3811,-7.4131,-7.4297,-7.4224,-7.4101,-7.3749,-7.3707,-7.3403,-7.3308,-7.3181,-7.3066,-7.2832,0,0]},{"header":{"parameterUnit":"m.s-1","parameterCategory":1,"la1":30.2992,"la2":30.254,"lo1":-89.0895,"lo2":-89.0443,"dy":0.0025,"dx":0.0025,"nx":19,"ny":19,"refTime":"2026-04-07T21:00:00:Z","depth":0,"parameterNumber":3,"parameterNumberName":"V-component_of_WINDS"},"data":[0,0,0,-1.0252,-1.0252,-1.0233,-1.0233,-1.0197,-1.0197,0,0,0,0,0,0,0,0,0,0,0,-1.0251,-1.0251,-1.0252,-1.0252,-1.0233,-1.0233,-1.0197,-1.0197,0,0,0,0,0,0,0,0,0,0,0,-1.0251,-1.0251,-1.025,-1.0251,-1.0233,-1.0233,-1.0197,-1.0215,0,0,0,0,0,0,0,0,0,0,-1.0235,-1.0228,-1.0251,-1.025,-1.0251,-1.0233,-1.0233,-1.0217,-1.0214,-1.02,0,-1.0187,0,-1.0191,-1.0194,-1.0194,0,0,0,-1.0256,-1.023,-1.0231,-1.025,-1.0251,-1.0233,-1.0243,-1.0215,-1.0213,-1.0197,-1.0187,-1.0186,-1.0191,-1.0193,-1.0193,-1.0097,-1.0097,0,0,-1.0257,-1.0244,-1.0233,-1.0229,-1.0233,-1.0243,-1.0242,-1.0214,-1.0202,-1.0187,-1.0185,-1.019,-1.0193,-1.0193,-1.0098,-1.0097,0,0,0,-1.0257,-1.0245,-1.0247,-1.023,-1.0228,-1.0243,-1.0242,-1.0203,-1.0205,-1.0185,-1.019,-1.0193,-1.0192,-1.0099,-1.0098,-1.005,0,0,0,-1.0258,-1.0245,-1.0247,-1.0239,-1.0228,-1.0216,-1.0231,-1.0206,-1.0204,-1.019,-1.0193,-1.0192,-1.01,-1.0098,-1.0053,-1.0029,0,0,0,-1.0254,-1.0244,-1.024,-1.0238,-1.023,-1.0216,-1.0217,-1.0206,-1.0206,-1.0193,-1.0192,-1.01,-1.0099,-1.0056,-1.0034,-0.9998,0,0,0,-1.0247,-1.02,-1.0239,-1.0187,-1.023,-1.0188,-1.0217,-1.0187,-1.017,-1.0193,-1.01,-1.0098,-1.0057,-1.0036,-1.0,-0.9963,-0.9947,0,0,-1.018,-1.0191,-1.0162,-1.0196,-1.0143,-1.0192,-1.0132,-1.013,-1.0141,-1.0111,-1.0109,-1.0052,-1.0034,-0.9998,-0.9867,-0.9854,0,0,0,-1.0136,-1.0114,-1.0103,-1.0086,-1.0083,-1.0077,-1.0085,-1.0084,-1.0059,-1.0123,-1.0032,-1.0021,-1.0001,-0.9983,-0.9972,-0.9954,-1.009,-1.009,-1.0091,-1.002,-1.0036,-0.9987,-1.0,-0.9983,-0.9991,-0.9978,-0.9977,-1.0,-0.9977,-0.9967,-0.9886,-0.9865,-0.9857,-0.9838,-0.9952,-0.9952,-0.9951,-0.9951,-0.992,-0.989,-0.9919,-0.9882,-0.9898,-0.9866,-0.9871,-0.9887,-0.9858,-0.9896,-0.9878,-0.9915,-0.9843,-0.9826,-0.9948,-0.9949,-0.9949,-0.9949,-0.995,-0.9843,-0.9831,-0.9831,-0.9806,-0.9785,-0.98,-0.9771,-0.9788,-0.9803,-0.9787,-0.9776,-0.9776,-0.9776,-0.9781,-0.978,-0.978,-0.978,-0.978,-0.978,-0.9763,-0.9764,-0.9737,-0.9728,-0.9718,-0.9706,-0.9712,-0.9702,-0.9695,-0.971,-0.971,-0.9731,-0.9834,-0.9858,-0.9775,-0.9776,-0.9777,-0.9777,-0.9777,-0.965,-0.9678,-0.9636,-0.9626,-0.9615,-0.9591,-0.9613,-0.9591,-0.9585,-0.9569,-0.9595,-0.9669,-0.9682,-0.9691,-0.971,-0.9594,-0.9594,-0.9594,-0.9594,-0.9582,-0.9591,-0.955,-0.9532,-0.9517,-0.9532,-0.9481,-0.9484,-0.9492,-0.9489,-0.9509,-0.9537,-0.9545,-0.9552,-0.9564,-0.9582,-0.9436,-0.9436,-0.9436,-0.9512,-0.9519,-0.9473,-0.9482,-0.9474,-0.9466,-0.9417,-0.9393,-0.9409,-0.943,-0.9485,-0.9492,-0.9538,-0.9553,-0.9573,-0.9591,-0.9624,0,0]}]]